• In Romania
  • List of Countries
  • For 7 days
  • Water Temperature
  • Satellite Maps
  • Weather Map
  • Weather Widgets
  • user-avatar
    Login

    Hourly Weather Guanare

    Today, 25 June, Monday

    Time Temperature Precipitation Wind Pressure Humidity
    00:00 +24°C° 0.9 mm 1 mps 743 mmHg 88%
    01:00 +24°C° 0 mm 1 mps 743 mmHg 90%
    02:00 +24°C° 0.9 mm 1 mps 743 mmHg 92%
    03:00 +24°C° 0.9 mm 1 mps 743 mmHg 93%
    04:00 +23°C° 0.9 mm 1 mps 743 mmHg 94%
    05:00 +24°C° 0.6 mm 1 mps 743 mmHg 94%
    06:00 +24°C° 0.6 mm 1 mps 743 mmHg 95%
    07:00 +24°C° 0.6 mm 1 mps 744 mmHg 95%
    08:00 +26°C° 0.5 mm 1 mps 744 mmHg 91%
    09:00 +27°C° 0.5 mm 1 mps 744 mmHg 88%
    10:00 +28°C° 0.5 mm 2 mps 744 mmHg 84%
    11:00 +28°C° 1.1 mm 1 mps 744 mmHg 85%
    12:00 +28°C° 1.1 mm 1 mps 743 mmHg 86%
    13:00 +29°C° 1.1 mm 1 mps 743 mmHg 87%
    14:00 +29°C° 1.4 mm 1 mps 742 mmHg 86%
    15:00 +29°C° 1.4 mm 1 mps 742 mmHg 84%
    16:00 +28°C° 1.4 mm 1 mps 741 mmHg 83%
    17:00 +27°C° 0.4 mm 1 mps 741 mmHg 86%
    18:00 +26°C° 0.4 mm 1 mps 742 mmHg 88%
    19:00 +25°C° 0.4 mm 1 mps 742 mmHg 91%
    20:00 +24°C° 0.3 mm 1 mps 742 mmHg 90%
    21:00 +24°C° 0.3 mm 1 mps 743 mmHg 89%
    22:00 +24°C° 0.3 mm 1 mps 743 mmHg 89%
    23:00 +23°C° 0.8 mm 1 mps 743 mmHg 89%

    Tomorrow, 26 June, Tuesday

    Time Temperature Precipitation Wind Pressure Humidity
    00:00 +23°C° 0.8 mm 1 mps 743 mmHg 90%
    01:00 +23°C° 0.8 mm 1 mps 743 mmHg 90%
    02:00 +23°C° 0.7 mm 1 mps 742 mmHg 90%
    03:00 +23°C° 0.7 mm 1 mps 742 mmHg 91%
    04:00 +23°C° 0.7 mm 1 mps 742 mmHg 91%
    05:00 +24°C° 0.9 mm 1 mps 743 mmHg 91%
    06:00 +24°C° 0.9 mm 1 mps 743 mmHg 90%
    07:00 +25°C° 0.9 mm 1 mps 744 mmHg 90%
    08:00 +26°C° 0.8 mm 1 mps 744 mmHg 90%
    09:00 +26°C° 0.8 mm 1 mps 744 mmHg 90%
    10:00 +27°C° 0.8 mm 1 mps 744 mmHg 90%
    11:00 +28°C° 1.1 mm 1 mps 744 mmHg 89%
    12:00 +28°C° 1.1 mm 1 mps 743 mmHg 87%
    13:00 +28°C° 1.1 mm 1 mps 743 mmHg 86%
    14:00 +29°C° 1 mm 1 mps 742 mmHg 84%
    15:00 +29°C° 1 mm 1 mps 741 mmHg 81%
    16:00 +29°C° 1 mm 1 mps 741 mmHg 78%
    17:00 +28°C° 0.2 mm 1 mps 741 mmHg 81%
    18:00 +27°C° 0.2 mm 1 mps 742 mmHg 85%
    19:00 +25°C° 0.2 mm 1 mps 742 mmHg 88%
    20:00 +25°C° 0.2 mm 1 mps 743 mmHg 87%
    21:00 +25°C° 0.2 mm 1 mps 743 mmHg 86%
    22:00 +24°C° 0.2 mm 1 mps 744 mmHg 85%
    23:00 +24°C° 0.2 mm 1 mps 743 mmHg 85%

    Day after tomorrow, 27 June, Wednesday

    Time Temperature Precipitation Wind Pressure Humidity
    00:00 +24°C° 0.2 mm 1 mps 743 mmHg 84%
    01:00 +24°C° 0.2 mm 1 mps 743 mmHg 84%
    02:00 +24°C° 0.5 mm 1 mps 742 mmHg 86%
    03:00 +23°C° 0.5 mm 1 mps 742 mmHg 87%
    04:00 +23°C° 0.5 mm 1 mps 742 mmHg 89%
    05:00 +24°C° 0.7 mm 1 mps 743 mmHg 89%
    06:00 +24°C° 0.7 mm 1 mps 743 mmHg 89%
    07:00 +25°C° 0.7 mm 1 mps 743 mmHg 90%
    08:00 +26°C° 0.7 mm 1 mps 744 mmHg 89%
    09:00 +27°C° 0.7 mm 1 mps 744 mmHg 87%
    10:00 +27°C° 0.7 mm 1 mps 744 mmHg 86%
    11:00 +28°C° 0.9 mm 1 mps 743 mmHg 85%
    12:00 +28°C° 0.9 mm 1 mps 743 mmHg 84%
    13:00 +29°C° 0.9 mm 1 mps 742 mmHg 83%
    14:00 +28°C° 1 mm 1 mps 742 mmHg 85%
    15:00 +28°C° 1 mm 1 mps 741 mmHg 87%
    16:00 +27°C° 1 mm 1 mps 741 mmHg 89%
    17:00 +26°C° 0.4 mm 1 mps 741 mmHg 89%
    18:00 +26°C° 0.4 mm 1 mps 742 mmHg 88%
    19:00 +25°C° 0.4 mm 1 mps 742 mmHg 88%
    20:00 +25°C° 0.2 mm 1 mps 743 mmHg 87%
    21:00 +24°C° 0.2 mm 1 mps 743 mmHg 87%
    22:00 +24°C° 0.2 mm 1 mps 743 mmHg 86%
    23:00 +24°C° 0.3 mm 1 mps 743 mmHg 86%

    28 June, Thursday

    Time Temperature Precipitation Wind Pressure Humidity
    00:00 +24°C° 0.3 mm 1 mps 743 mmHg 86%
    01:00 +24°C° 0.3 mm 1 mps 742 mmHg 86%
    02:00 +24°C° 0.5 mm 1 mps 742 mmHg 87%
    03:00 +23°C° 0.5 mm 1 mps 742 mmHg 89%
    04:00 +23°C° 0.5 mm 1 mps 742 mmHg 90%
    05:00 +24°C° 0.2 mm 1 mps 743 mmHg 89%
    06:00 +25°C° 0.2 mm 1 mps 743 mmHg 87%
    07:00 +25°C° 0.2 mm 1 mps 744 mmHg 86%
    08:00 +27°C° 0.1 mm 1 mps 744 mmHg 81%
    09:00 +28°C° 0.1 mm 1 mps 744 mmHg 76%
    10:00 +29°C° 0.1 mm 1 mps 744 mmHg 71%
    11:00 +30°C° 0.4 mm 1 mps 743 mmHg 68%
    12:00 +31°C° 0.4 mm 1 mps 742 mmHg 64%
    13:00 +32°C° 0.4 mm 1 mps 742 mmHg 61%
    14:00 +32°C° 0.5 mm 1 mps 741 mmHg 62%
    15:00 +32°C° 0.5 mm 1 mps 741 mmHg 64%
    16:00 +32°C° 0.5 mm 1 mps 740 mmHg 65%
    17:00 +30°C° 0.2 mm 1 mps 740 mmHg 70%
    18:00 +28°C° 0.2 mm 1 mps 741 mmHg 75%
    19:00 +26°C° 0.2 mm 1 mps 741 mmHg 80%
    20:00 +26°C° 0.2 mm 1 mps 742 mmHg 79%
    21:00 +25°C° 0.2 mm 1 mps 742 mmHg 78%
    22:00 +25°C° 0.2 mm 1 mps 743 mmHg 76%
    23:00 +24°C° 1 mm 1 mps 743 mmHg 78%

    29 June, Friday

    Time Temperature Precipitation Wind Pressure Humidity
    00:00 +24°C° 1 mm 1 mps 742 mmHg 79%
    01:00 +24°C° 1 mm 1 mps 742 mmHg 80%
    02:00 +24°C° 0.7 mm 1 mps 742 mmHg 81%
    03:00 +21°C° 0.7 mm 0 mps 742 mmHg 83%
    04:00 +21°C° 0.7 mm 0 mps 742 mmHg 84%
    05:00 +22°C° 0.3 mm 0 mps 743 mmHg 84%
    06:00 +23°C° 0.3 mm 0 mps 743 mmHg 84%
    07:00 +23°C° 0.3 mm 0 mps 744 mmHg 84%
    08:00 +26°C° 0.4 mm 1 mps 744 mmHg 84%
    09:00 +27°C° 0.4 mm 1 mps 744 mmHg 84%
    10:00 +27°C° 0.4 mm 1 mps 744 mmHg 84%
    11:00 +28°C° 0.9 mm 1 mps 743 mmHg 81%
    12:00 +29°C° 0.9 mm 1 mps 743 mmHg 79%
    13:00 +30°C° 0.9 mm 1 mps 742 mmHg 76%
    14:00 +30°C° 1.3 mm 1 mps 741 mmHg 78%
    15:00 +30°C° 1.3 mm 1 mps 741 mmHg 79%
    16:00 +29°C° 1.3 mm 1 mps 741 mmHg 80%
    17:00 +28°C° 0.2 mm 1 mps 741 mmHg 83%
    18:00 +27°C° 0.2 mm 1 mps 741 mmHg 86%
    19:00 +26°C° 0.2 mm 1 mps 742 mmHg 88%
    20:00 +25°C° 0.3 mm 1 mps 742 mmHg 87%
    21:00 +25°C° 0.3 mm 1 mps 743 mmHg 85%
    22:00 +25°C° 0.3 mm 1 mps 743 mmHg 83%
    23:00 +24°C° 0.5 mm 1 mps 743 mmHg 85%

    30 June, Saturday

    Time Temperature Precipitation Wind Pressure Humidity
    00:00 +24°C° 0.5 mm 1 mps 742 mmHg 87%
    01:00 +23°C° 0.5 mm 1 mps 742 mmHg 89%
    02:00 +23°C° 0.6 mm 1 mps 742 mmHg 90%
    03:00 +23°C° 0.6 mm 1 mps 742 mmHg 90%
    04:00 +23°C° 0.6 mm 1 mps 742 mmHg 91%
    05:00 +24°C° 0.6 mm 1 mps 743 mmHg 92%
    06:00 +24°C° 0.6 mm 1 mps 743 mmHg 92%
    07:00 +25°C° 0.6 mm 1 mps 744 mmHg 93%
    08:00 +26°C° 0.4 mm 1 mps 744 mmHg 88%
    09:00 +27°C° 0.4 mm 1 mps 744 mmHg 82%
    10:00 +29°C° 0.4 mm 1 mps 744 mmHg 76%
    11:00 +30°C° 0.5 mm 1 mps 743 mmHg 72%
    12:00 +30°C° 0.5 mm 1 mps 742 mmHg 69%
    13:00 +31°C° 0.5 mm 1 mps 742 mmHg 65%
    14:00 +31°C° 0.1 mm 1 mps 741 mmHg 63%
    15:00 +31°C° 0.1 mm 1 mps 741 mmHg 61%
    16:00 +31°C° 0.1 mm 1 mps 740 mmHg 59%
    17:00 +29°C° 0 mm 1 mps 741 mmHg 63%
    18:00 +27°C° 0 mm 1 mps 741 mmHg 68%
    19:00 +25°C° 0 mm 1 mps 742 mmHg 72%
    20:00 +25°C° 0 mm 1 mps 742 mmHg 66%
    21:00 +24°C° 0 mm 1 mps 742 mmHg 60%
    22:00 +24°C° 0 mm 1 mps 743 mmHg 54%
    23:00 +24°C° 0 mm 1 mps 742 mmHg 54%
    Show more